EW3176 Weather Reports


time (UTC)temp
C
wind
direction
speed
KPH
gust
KPH
rain 1hr
cm
rain 24hr
cm
rain mn
cm
humidity
%
barometer
mb
20260510162021 28 68 1.6 9.7 0.00 0.00 0.00 42 1018.7
20260510161022 28 45 1.6 4.8 0.00 0.00 0.00 41 1018.7
20260510160021 29 0.0 3.2 0.00 0.00 0.00 42 1018.7
20260510155021 28 293 1.6 6.4 0.00 0.00 0.00 42 1018.8
20260510154102 28 0.0 3.2 0.00 0.00 0.00 44 1019.0
20260510153022 29 0.0 3.2 0.00 0.00 0.00 44 1019.1
20260510152021 28 0.0 3.2 0.00 0.00 0.00 46 1019.2
20260510151021 29 0.0 3.2 0.00 0.00 0.00 46 1019.1
20260510150021 29 0.0 3.2 0.00 0.00 0.00 45 1019.0
20260510145021 28 0.0 3.2 0.00 0.00 0.00 51 1018.9
20260510144021 28 0.0 4.8 0.00 0.00 0.00 48 1018.9
20260510143021 27 0.0 1.6 0.00 0.00 0.00 53 1018.9
20260510142021 28 0.0 1.6 0.00 0.00 0.00 52 1018.9
20260510141021 27 0.0 3.2 0.00 0.00 0.00 54 1018.8
20260510140021 26 0.0 1.6 0.00 0.00 0.00 57 1018.8
20260510135047 26 0.0 1.6 0.00 0.00 0.00 60 1018.9
20260510134521 26 0.0 1.6 0.00 0.00 0.00 60 1018.8
20260510133521 26 0.0 3.2 0.00 0.00 0.00 60 1018.9
20260510132521 26 0.0 3.2 0.00 0.00 0.00 60 1018.8
20260510131541 25 0.0 4.8 0.00 0.00 0.00 66 1018.7
20260510130521 25 0.0 1.6 0.00 0.00 0.00 67 1018.7
20260510125521 23 0.0 0.0 0.00 0.00 0.00 72 1018.5
20260510124542 21 0.0 3.2 0.00 0.00 0.00 77 1018.5
20260510123521 21 0.0 0.0 0.00 0.00 0.00 81 1018.3
20260510122521 20 0.0 0.0 0.00 0.00 0.00 84 1018.2
20260510121521 18 0.0 1.6 0.00 0.00 0.00 93 1018.1
20260510120522 16 0.0 0.0 0.00 0.00 0.00 98 1018.0
20260510115521 16 0.0 1.6 0.00 0.00 0.00 98 1017.9
20260510114540 15 0.0 0.0 0.00 0.00 0.00 97 1017.8
20260510113522 15 0.0 0.0 0.00 0.00 0.00 97 1017.8
20260510112541 15 0.0 0.0 0.00 0.00 0.00 97 1017.6
20260510111521 15 0.0 0.0 0.00 0.00 0.00 97 1017.5
20260510110602 15 0.0 0.0 0.00 0.00 0.00 97 1017.3
20260510105521 15 0.0 0.0 0.00 0.00 0.00 97 1017.0
20260510104540 15 0.0 0.0 0.00 0.00 0.00 97 1017.0
20260510103522 15 0.0 0.0 0.00 0.00 0.00 97 1016.7
20260510102521 15 0.0 0.0 0.00 0.00 0.00 97 1016.5
20260510101520 15 0.0 0.0 0.00 0.00 0.00 97 1016.5
20260510100521 15 0.0 0.0 0.00 0.00 0.00 96 1016.4
20260510095521 15 0.0 0.0 0.00 0.00 0.00 96 1016.3
20260510094521 15 0.0 0.0 0.00 0.00 0.00 96 1016.1
20260510093521 15 0.0 0.0 0.00 0.00 0.00 96 1016.1
20260510092521 15 0.0 0.0 0.00 0.00 0.00 96 1016.1
20260510092021 15 0.0 0.0 0.00 0.00 0.00 96 1016.0
20260510091021 15 0.0 0.0 0.00 0.00 0.00 96 1015.9
20260510090021 15 0.0 0.0 0.00 0.00 0.00 96 1015.8
20260510085021 16 0.0 0.0 0.00 0.00 0.00 95 1015.7
20260510084021 16 0.0 0.0 0.00 0.00 0.00 95 1015.5
20260510083021 16 0.0 0.0 0.00 0.00 0.00 95 1015.5
20260510082021 16 0.0 0.0 0.00 0.00 0.00 95 1015.6
20260510081021 16 0.0 0.0 0.00 0.00 0.00 95 1015.5
20260510080041 16 0.0 0.0 0.00 0.00 0.00 95 1015.5
20260510075021 16 0.0 1.6 0.00 0.00 0.00 95 1015.6
20260510074021 16 0.0 0.0 0.00 0.00 0.00 95 1015.5
20260510073021 16 0.0 0.0 0.00 0.00 0.00 95 1015.3
20260510072041 16 0.0 1.6 0.00 0.00 0.00 95 1015.2
20260510071021 16 0.0 0.0 0.00 0.00 0.00 95 1015.3
20260510070021 16 0.0 0.0 0.00 0.00 0.00 94 1015.3
20260510065021 16 0.0 0.0 0.00 0.00 0.00 94 1015.1
20260510064020 16 0.0 0.0 0.00 0.00 0.00 94 1015.2
20260510063021 16 0.0 0.0 0.00 0.00 0.00 94 1015.1
20260510062021 16 0.0 0.0 0.00 0.00 0.00 93 1015.0
20260510061101 16 0.0 0.0 0.00 0.00 0.00 93 1015.2
20260510060021 16 0.0 0.0 0.00 0.00 0.00 93 1015.4
20260510055020 16 0.0 0.0 0.00 0.00 0.00 92 1015.3
20260510054244 16 0.0 0.0 0.00 0.00 0.00 92 1015.6
20260510053022 17 0.0 0.0 0.00 0.00 0.00 92 1015.7
20260510052102 17 0.0 0.0 0.00 0.00 0.00 92 1015.7
20260510051021 17 0.0 0.0 0.00 0.00 0.00 92 1015.7
20260510050022 17 0.0 0.0 0.00 0.00 0.00 92 1015.8
20260510045042 17 0.0 0.0 0.00 0.00 0.00 92 1015.8
20260510044021 17 0.0 0.0 0.00 0.00 0.00 92 1015.9
20260510043021 17 0.0 0.0 0.00 0.00 0.00 92 1015.8
20260510042021 17 0.0 0.0 0.00 0.00 0.00 91 1015.6
20260510041021 17 0.0 0.0 0.00 0.00 0.00 91 1015.8
20260510040023 17 0.0 0.0 0.00 0.00 0.00 91 1015.7
20260510035022 17 0.0 0.0 0.00 0.00 0.00 91 1015.7
20260510034020 17 0.0 0.0 0.00 0.00 0.00 91 1015.6
20260510033021 17 0.0 0.0 0.00 0.00 0.00 90 1015.7
20260510032022 17 0.0 0.0 0.00 0.00 0.00 91 1015.5
20260510031022 17 0.0 0.0 0.00 0.00 0.00 90 1015.6
20260510030043 17 0.0 0.0 0.00 0.00 0.00 90 1015.4
20260510025021 18 0.0 0.0 0.00 0.00 0.00 90 1015.4
20260510024020 18 0.0 0.0 0.00 0.00 0.00 90 1015.4
20260510023022 18 0.0 0.0 0.00 0.00 0.00 90 1015.3
20260510022022 18 0.0 0.0 0.00 0.00 0.00 89 1015.2
20260510021020 18 0.0 0.0 0.00 0.00 0.00 89 1015.2
20260510020044 18 0.0 0.0 0.00 0.00 0.00 88 1015.3
20260510015022 18 0.0 0.0 0.00 0.00 0.00 88 1014.9
20260510014022 18 0.0 0.0 0.00 0.00 0.00 87 1014.9
20260510013022 19 0.0 0.0 0.00 0.00 0.00 86 1014.5
20260510012020 19 0.0 0.0 0.00 0.00 0.00 85 1014.2
20260510011022 20 0.0 0.0 0.00 0.00 0.00 84 1014.2
20260510010022 20 0.0 0.0 0.00 0.00 0.00 83 1014.0
20260510005102 20 0.0 0.0 0.00 0.00 0.00 82 1014.0
20260510004022 20 0.0 0.0 0.00 0.00 0.00 81 1014.0
20260510003022 21 0.0 0.0 0.00 0.00 0.00 80 1014.0
20260510002022 21 0.0 0.0 0.00 0.00 0.00 80 1013.9
20260510001022 21 0.0 3.2 0.00 0.00 0.00 79 1013.7
20260510000022 21 0.0 0.0 0.00 0.00 0.00 78 1013.6
20260509235042 21 0.0 1.6 0.00 0.00 0.00 78 1013.5
20260509234022 21 0.0 0.0 0.00 0.00 0.00 77 1013.1
20260509233042 22 0.0 1.6 0.00 0.00 0.00 77 1013.1
20260509232022 22 0.0 1.6 0.00 0.00 0.00 76 1013.1
20260509231022 22 0.0 1.6 0.00 0.00 0.00 75 1013.0
20260509230137 22 0.0 4.8 0.00 0.00 0.00 75 1013.0
20260509225022 22 0.0 3.2 0.00 0.00 0.00 74 1012.9
20260509224022 22 45 1.6 6.4 0.00 0.00 0.00 74 1012.9
20260509223022 22 68 1.6 6.4 0.00 0.00 0.00 72 1013.0
20260509222144 23 0.0 3.2 0.00 0.00 0.00 72 1013.0
20260509221022 23 45 1.6 4.8 0.00 0.00 0.00 71 1013.0
20260509220042 23 0.0 3.2 0.00 0.00 0.00 72 1012.9
20260509215101 23 45 1.6 8.0 0.00 0.00 0.00 72 1012.9
20260509214022 23 0.0 3.2 0.00 0.00 0.00 71 1013.0
20260509213040 23 68 1.6 4.8 0.00 0.00 0.00 69 1013.0
20260509212022 23 0.0 4.8 0.00 0.00 0.00 69 1012.9
20260509211022 23 0.0 3.2 0.00 0.00 0.00 70 1012.7
20260509210022 23 0.0 3.2 0.00 0.00 0.00 72 1012.7
20260509205021 23 0.0 0.0 0.00 0.00 0.00 72 1013.0
20260509204022 23 45 1.6 8.0 0.00 0.00 0.00 70 1012.8
20260509203022 23 0.0 4.8 0.00 0.00 0.00 70 1012.9
20260509202055 23 0.0 3.2 0.00 0.00 0.00 70 1012.9
20260509201522 23 0.0 1.6 0.00 0.00 0.00 70 1012.8
20260509200542 23 45 1.6 4.8 0.00 0.00 0.00 69 1012.8
20260509195522 23 45 1.6 8.0 0.00 0.00 0.00 69 1012.9
20260509194522 23 45 1.6 8.0 0.00 0.00 0.00 69 1013.3
20260509193522 23 68 1.6 9.7 0.00 0.00 0.00 69 1013.2
20260509192522 23 45 1.6 8.0 0.00 0.00 0.00 67 1013.2
20260509191523 23 248 1.6 6.4 0.00 0.00 0.00 65 1013.5
20260509190522 24 45 1.6 6.4 0.00 0.00 0.00 62 1013.3
20260509185521 24 45 1.6 4.8 0.00 0.00 0.00 63 1013.6
20260509184521 23 45 1.6 8.0 0.00 0.00 0.00 64 1013.7
20260509183521 23 293 1.6 11.3 0.00 0.00 0.00 63 1013.7
20260509182522 24 68 1.6 6.4 0.00 0.00 0.00 60 1013.8
20260509181521 24 45 3.2 12.9 0.00 0.00 0.00 61 1013.6
20260509180521 25 45 1.6 4.8 0.00 0.00 0.00 59 1014.1
20260509175521 25 45 1.6 8.0 0.00 0.00 0.00 59 1014.2
20260509174521 24 0.0 3.2 0.00 0.00 0.00 60 1014.4
20260509173521 23 45 1.6 9.7 0.00 0.00 0.00 61 1014.6
20260509172521 23 0.0 3.2 0.00 0.00 0.00 62 1014.6
20260509171521 23 45 1.6 9.7 0.00 0.00 0.00 62 1014.9
20260509170541 23 45 1.6 6.4 0.00 0.00 0.00 62 1014.9
20260509165521 23 90 1.6 6.4 0.00 0.00 0.00 63 1015.2
20260509164521 23 45 1.6 9.7 0.00 0.00 0.00 63 1015.3
20260509163521 23 45 4.8 12.9 0.00 0.00 0.00 61 1015.3